sat.trackr.live / text

‹ back to catalog

STARLINK-32276

NORAD 60944 · 2024-155W

PAYLOAD ACTIVE UNKNOWN

§ Identity

Operator
Country
US
Launch date
2024-08-31
Launch site
AFWTR
Launch vehicle
Mass (kg)
RCS (m²)

Purposes: comms

External: N2YO · Heavens-Above · Gunter

§ Orbital elements

Epoch: 2026-05-25T03:28:09.463008Z

Period
94.11 min
Inclination
53.1590°
Eccentricity
0.0001134
Mean motion
15.30194583 rev/d
Perigee alt
474.5 km
Apogee alt
476.0 km
Semi-major
6,853.4 km
B*
3.7536e-5
RAAN
134.7363°
Arg perigee
93.4630°
Mean anomaly
266.6501°
Rev number
9,809

§ Raw data

STARLINK-322761 60944U 24155W   26145.14455397  .00000753  00000+0  37536-4 0  99982 60944  53.1590 134.7363 0001134  93.4630 266.6501 15.30194583 98090

JSON: /api/v1/satellites/60944 · /tle

For live sub-satellite position, see the globe view (requires WebGL).

§ Visibility from observer

Set your observer location to see the next 7 days of passes ≥ 10°. The values pass through the URL so the page stays shareable.

No JS? Fill the form by hand. The geolocation button needs JavaScript.